sat.trackr.live / text

‹ back to catalog

ASRTU-1 (AO-123)

NORAD 61781 · 2024-199AY

PAYLOAD ACTIVE UNKNOWN

§ Identity

Operator
Country
PRC
Launch date
2024-11-04
Launch site
VOSTO
Launch vehicle
Mass (kg)
RCS (m²)

Purposes: comms

External: N2YO · Heavens-Above · Gunter

§ Orbital elements

Epoch: 2026-09-19T22:25:56.937792Z

Period
93.69 min
Inclination
97.2840°
Eccentricity
0.0012522
Mean motion
15.36904828 rev/d
Perigee alt
446.7 km
Apogee alt
463.8 km
Semi-major
6,833.4 km
B*
1.6144e-4
RAAN
130.7564°
Arg perigee
335.8559°
Mean anomaly
24.2097°
Rev number
14,847

§ Raw data

ASRTU-1 (AO-123)1 61781U 24199AY  26262.93468678  .00005757  00000+0  16144-3 0  99992 61781  97.2840 130.7564 0012522 335.8559  24.2097 15.36904828148475

JSON: /api/v1/satellites/61781 · /tle

For live sub-satellite position, see the globe view (requires WebGL).

§ Visibility from observer

Set your observer location to see the next 7 days of passes ≥ 10°. The values pass through the URL so the page stays shareable.

No JS? Fill the form by hand. The geolocation button needs JavaScript.

§ Radio — SatNOGS DB

ModeDescriptionDownlinkUplink
QPSK Image download 10.460 GHz
BPSK Mode U - SSDV 436.210 MHz
BPSK Mode U - Telemetry 435.400 MHz
FM Mode V/U - FM Transceiver 435.400 MHz 145.850 MHz

4 transmitters · refreshed weekly from db.satnogs.org